This is the latest recevied weather packets stored in our database for station/object OE-11331. If no packets are shown the sender has not sent any weather packets the latest 10 day(s).
| Time | Temp. | Humidity | Pressure | Rain* | Wind** | Luminosity | Snow |
|---|---|---|---|---|---|---|---|
| 1788095134 | 27.78° C | 43% | 1014.2 hPa | 0 mm | - | 714 W/m² | - |
| 1788094534 | 27.78° C | 44% | 1014.4 hPa | 0 mm | - | 725 W/m² | - |
| 1788093707 | 27.78° C | 42% | 1014.3 hPa | 0 mm | - | 747 W/m² | - |
| 1788093334 | 27.78° C | 43% | 1014.3 hPa | 0 mm | - | 758 W/m² | - |
| 1788092734 | 27.78° C | 43% | 1014.4 hPa | 0 mm | - | 768 W/m² | - |
| 1788091906 | 27.22° C | 45% | 1014.5 hPa | 0 mm | - | 768 W/m² | - |
| 1788091534 | 27.22° C | 43% | 1014.6 hPa | 0 mm | - | 779 W/m² | - |
| 1788090934 | 26.67° C | 45% | 1014.7 hPa | 0 mm | - | 790 W/m² | - |
| 1788090106 | 27.22° C | 49% | 1014.7 hPa | 0 mm | - | 790 W/m² | - |
| 1788089733 | 26.67° C | 49% | 1014.9 hPa | 0 mm | - | 790 W/m² | - |
| 1788089134 | 26.11° C | 50% | 1015.1 hPa | 0 mm | - | 790 W/m² | - |
| 1788088307 | 25.56° C | 49% | 1015.4 hPa | 0 mm | - | 790 W/m² | - |
| 1788087934 | 25.56° C | 50% | 1015.4 hPa | 0 mm | - | 790 W/m² | - |
| 1788087334 | 25.56° C | 51% | 1015.5 hPa | 0 mm | - | 779 W/m² | - |
| 1788086507 | 25.56° C | 53% | 1015.7 hPa | 0 mm | - | 779 W/m² | - |
| 1788086134 | 24.44° C | 51% | 1016 hPa | 0 mm | - | 768 W/m² | - |
| 1788085534 | 25° C | 54% | 1016.1 hPa | 0 mm | - | 758 W/m² | - |
| 1788084707 | 24.44° C | 55% | 1016.2 hPa | 0 mm | - | 758 W/m² | - |
| 1788084334 | 23.89° C | 55% | 1016.5 hPa | 0 mm | - | 736 W/m² | - |
| 1788083733 | 24.44° C | 56% | 1016.5 hPa | 0 mm | - | 725 W/m² | - |
| 1788082907 | 24.44° C | 59% | 1016.7 hPa | 0 mm | - | 714 W/m² | - |
| 1788082534 | 23.89° C | 59% | 1016.7 hPa | 0 mm | - | 703 W/m² | - |
| 1788081933 | 23.89° C | 60% | 1016.9 hPa | 0 mm | - | 682 W/m² | - |
| 1788081107 | 23.33° C | 61% | 1016.9 hPa | 0 mm | - | 660 W/m² | - |
| 1788080733 | 22.78° C | 64% | 1017 hPa | 0 mm | - | 649 W/m² | - |
* Rain latest hour (hover to see other rain measurements)
** Current wind speed in m/s (hover to see current wind gust speed)